FW8782 Weather Reports


time (UTC)temp
F
wind
direction
speed
knots
gust
knots
rain 1hr
in
rain 24hr
in
rain mn
in
humidity
%
barometer
mb
20260508134014 45 217 0.0 2.6 0.00 0.00 0.00 87 1019.0
20260508133514 45 0 0.0 1.7 0.00 0.00 0.00 87 1019.0
20260508133056 45 121 0.0 1.7 0.00 0.00 0.00 87 1018.8
20260508132514 45 0 0.0 1.7 0.00 0.00 0.00 87 1018.8
20260508132020 44 0 0.0 1.7 0.00 0.00 0.00 88 1018.8
20260508131535 44 323 0.0 1.7 0.00 0.00 0.00 88 1018.7
20260508131014 44 0 0.0 1.7 0.00 0.00 0.00 88 1018.6
20260508130515 44 0 0.0 0.0 0.00 0.00 0.00 87 1018.6
20260508130034 44 0 0.0 0.0 0.00 0.00 0.00 87 1018.5
20260508125515 44 0 0.0 0.0 0.00 0.00 0.00 88 1018.3
20260508125015 44 0 0.0 0.0 0.00 0.00 0.00 88 1018.1
20260508124533 44 0 0.0 1.7 0.00 0.00 0.00 87 1018.1
20260508124015 44 0 0.0 1.7 0.00 0.00 0.00 87 1018.0
20260508123516 44 0 0.0 1.7 0.00 0.00 0.00 87 1018.1
20260508123034 44 323 0.0 1.7 0.00 0.00 0.00 87 1018.0
20260508122514 44 0 0.0 0.0 0.00 0.00 0.00 87 1018.1
20260508122014 44 0 0.0 0.0 0.00 0.00 0.00 87 1018.1
20260508121534 44 0 0.0 0.0 0.00 0.00 0.00 87 1018.1
20260508121016 44 0 0.0 0.0 0.00 0.00 0.00 87 1018.0
20260508120511 44 0 0.0 0.0 0.00 0.00 0.00 87 1017.9
20260508120034 44 0 0.0 0.0 0.00 0.00 0.00 87 1017.9
20260508115515 44 0 0.0 0.0 0.00 0.00 0.00 87 1018.0
20260508115015 45 0 0.0 0.0 0.00 0.00 0.00 86 1018.0
20260508114531 45 0 0.0 0.0 0.00 0.00 0.00 86 1017.8
20260508114015 45 0 0.0 0.0 0.00 0.00 0.00 86 1017.8
20260508113515 45 0 0.0 0.0 0.00 0.00 0.00 86 1017.7
20260508113039 45 0 0.0 0.0 0.00 0.00 0.00 86 1017.8
20260508112517 45 0 0.0 0.0 0.00 0.00 0.00 86 1017.6
20260508112014 45 0 0.0 0.0 0.00 0.00 0.00 86 1017.6
20260508111534 45 0 0.0 0.0 0.00 0.00 0.00 86 1017.5
20260508111015 45 0 0.0 0.0 0.00 0.00 0.00 86 1017.5
20260508110516 45 0 0.0 0.0 0.00 0.00 0.00 86 1017.4
20260508110034 45 0 0.0 0.0 0.00 0.00 0.00 86 1017.3
20260508105515 45 0 0.0 0.0 0.00 0.00 0.00 86 1017.3
20260508105015 46 0 0.0 0.0 0.00 0.00 0.00 86 1017.2
20260508104533 46 0 0.0 0.0 0.00 0.00 0.00 86 1017.3
20260508104015 46 0 0.0 0.0 0.00 0.00 0.00 85 1017.2
20260508103515 46 0 0.0 0.0 0.00 0.00 0.00 85 1017.1
20260508103032 46 0 0.0 0.0 0.00 0.00 0.00 85 1017.2
20260508102515 46 0 0.0 0.0 0.00 0.00 0.00 85 1017.0
20260508102015 46 0 0.0 0.0 0.00 0.00 0.00 85 1017.1
20260508101542 46 0 0.0 0.0 0.00 0.00 0.00 85 1017.1
20260508101015 46 0 0.0 0.0 0.00 0.00 0.00 85 1017.0
20260508100514 46 0 0.0 0.0 0.00 0.00 0.00 85 1017.1
20260508100032 46 0 0.0 0.0 0.00 0.00 0.00 85 1017.1
20260508095516 46 0 0.0 0.0 0.00 0.00 0.00 85 1017.1
20260508095015 46 0 0.0 0.0 0.00 0.00 0.00 85 1017.1
20260508094534 46 0 0.0 0.0 0.00 0.00 0.00 84 1017.1
20260508094018 47 0 0.0 0.0 0.00 0.00 0.00 84 1017.1
20260508093516 47 0 0.0 0.0 0.00 0.00 0.00 84 1017.1
20260508093032 47 0 0.0 0.0 0.00 0.00 0.00 84 1017.1
20260508092514 47 0 0.0 0.0 0.00 0.00 0.00 84 1017.0
20260508092015 47 0 0.0 0.0 0.00 0.00 0.00 84 1017.1
20260508091554 47 0 0.0 0.0 0.00 0.00 0.00 84 1017.0
20260508091014 47 0 0.0 0.0 0.00 0.00 0.00 84 1017.1
20260508090515 47 0 0.0 0.0 0.00 0.00 0.00 84 1017.0
20260508090030 47 0 0.0 0.0 0.00 0.00 0.00 84 1017.0
20260508085514 48 0 0.0 0.0 0.00 0.00 0.00 84 1017.0
20260508085015 48 0 0.0 0.0 0.00 0.00 0.00 84 1017.0
20260508084535 48 0 0.0 0.0 0.00 0.00 0.00 84 1017.0
20260508084021 48 0 0.0 0.0 0.00 0.00 0.00 84 1016.9
20260508083515 48 0 0.0 0.0 0.00 0.00 0.00 84 1017.0
20260508083037 48 0 0.0 0.0 0.00 0.00 0.00 84 1017.0
20260508082514 48 0 0.0 0.0 0.00 0.00 0.00 84 1017.0
20260508082015 48 0 0.0 0.0 0.00 0.00 0.00 84 1016.9
20260508081534 48 0 0.0 0.0 0.00 0.00 0.00 84 1017.0
20260508081015 48 0 0.0 0.0 0.00 0.00 0.00 84 1016.9
20260508080515 49 0 0.0 0.0 0.00 0.00 0.00 84 1017.0
20260508080030 49 0 0.0 0.0 0.00 0.00 0.00 83 1016.9
20260508075515 49 0 0.0 0.0 0.00 0.00 0.00 83 1016.8
20260508075021 49 0 0.0 0.0 0.00 0.00 0.00 83 1016.8
20260508074530 49 0 0.0 0.0 0.00 0.00 0.00 83 1016.8
20260508074015 49 0 0.0 0.0 0.00 0.00 0.00 83 1016.8
20260508073514 49 0 0.0 0.0 0.00 0.00 0.00 83 1016.7
20260508073035 49 0 0.0 0.0 0.00 0.00 0.00 83 1016.7
20260508072519 49 0 0.0 0.0 0.00 0.00 0.00 83 1016.7
20260508072016 49 0 0.0 0.0 0.00 0.00 0.00 83 1016.7
20260508071533 50 0 0.0 0.0 0.00 0.00 0.00 83 1016.7
20260508071018 50 0 0.0 0.0 0.00 0.00 0.00 82 1016.7
20260508070514 50 0 0.0 0.0 0.00 0.00 0.00 82 1016.7
20260508070032 50 0 0.0 0.0 0.00 0.00 0.00 82 1016.8
20260508065513 50 0 0.0 0.0 0.00 0.00 0.00 82 1016.9
20260508065016 50 0 0.0 0.0 0.00 0.00 0.00 82 1016.8
20260508064535 50 0 0.0 0.0 0.00 0.00 0.00 82 1016.8
20260508064013 50 0 0.0 0.0 0.00 0.00 0.00 82 1016.8
20260508063518 51 0 0.0 0.0 0.00 0.00 0.00 82 1016.8
20260508063100 51 0 0.0 0.0 0.00 0.00 0.00 81 1016.7
20260508062521 51 0 0.0 0.0 0.00 0.00 0.00 81 1016.8
20260508062016 51 0 0.0 0.0 0.00 0.00 0.00 81 1016.8
20260508061535 51 0 0.0 0.0 0.00 0.00 0.00 80 1016.8
20260508061016 51 0 0.0 0.0 0.00 0.00 0.00 80 1016.7
20260508060516 51 0 0.0 0.0 0.00 0.00 0.00 80 1016.8
20260508060034 52 0 0.0 0.0 0.00 0.00 0.00 80 1016.9
20260508055515 52 0 0.0 0.0 0.00 0.00 0.00 80 1016.9
20260508055015 52 0 0.0 0.0 0.00 0.00 0.00 79 1016.8
20260508054532 52 0 0.0 0.0 0.00 0.00 0.00 79 1016.7
20260508054016 52 0 0.0 0.0 0.00 0.00 0.00 79 1016.7
20260508053516 52 0 0.0 0.0 0.00 0.00 0.00 79 1016.8
20260508053043 53 0 0.0 0.0 0.00 0.00 0.00 79 1016.8
20260508052515 53 0 0.0 0.0 0.00 0.00 0.00 78 1016.8
20260508052020 53 0 0.0 0.0 0.00 0.00 0.00 78 1016.8
20260508051552 53 0 0.0 0.0 0.00 0.00 0.00 78 1016.8
20260508051015 53 0 0.0 0.0 0.00 0.00 0.00 77 1016.7
20260508050516 54 0 0.0 0.0 0.00 0.00 0.00 77 1016.7
20260508050031 54 0 0.0 0.0 0.00 0.00 0.00 76 1016.8
20260508045514 54 0 0.0 0.0 0.00 0.00 0.00 75 1016.8
20260508045014 54 0 0.0 0.0 0.00 0.00 0.00 75 1016.8
20260508044533 55 0 0.0 0.0 0.00 0.00 0.00 75 1016.8
20260508044014 55 0 0.0 0.0 0.00 0.00 0.00 75 1016.7
20260508043518 55 0 0.0 0.0 0.00 0.00 0.00 74 1016.7
20260508043033 55 0 0.0 0.0 0.00 0.00 0.00 74 1016.8
20260508042515 56 0 0.0 0.0 0.00 0.00 0.00 74 1016.8
20260508042015 56 0 0.0 0.0 0.00 0.00 0.00 73 1016.8
20260508041532 56 0 0.0 0.0 0.00 0.00 0.00 73 1016.8
20260508041015 56 0 0.0 0.0 0.00 0.00 0.00 73 1016.8
20260508040515 57 0 0.0 0.0 0.00 0.00 0.00 72 1016.8
20260508040035 57 0 0.0 0.0 0.00 0.00 0.00 72 1016.8
20260508035515 57 0 0.0 0.0 0.00 0.00 0.00 71 1016.7
20260508035018 58 0 0.0 0.0 0.00 0.00 0.00 70 1016.6
20260508034533 58 0 0.0 0.0 0.00 0.00 0.00 70 1016.6
20260508034012 59 0 0.0 0.0 0.00 0.00 0.00 70 1016.4
20260508033514 59 0 0.0 0.0 0.00 0.00 0.00 70 1016.4
20260508033043 59 0 0.0 0.0 0.00 0.00 0.00 69 1016.3
20260508032512 60 0 0.0 0.0 0.00 0.00 0.00 69 1016.4
20260508032014 60 0 0.0 1.7 0.00 0.00 0.00 68 1016.4
20260508031532 61 0 0.0 1.7 0.00 0.00 0.00 68 1016.4
20260508031014 61 0 0.0 1.7 0.00 0.00 0.00 68 1016.3
20260508030514 61 0 0.0 1.7 0.00 0.00 0.00 67 1016.4
20260508030036 62 0 0.0 0.9 0.00 0.00 0.00 66 1016.3
20260508025516 62 0 0.0 1.7 0.00 0.00 0.00 66 1016.2
20260508025015 63 0 0.0 1.7 0.00 0.00 0.00 66 1016.2
20260508024532 63 0 0.0 0.0 0.00 0.00 0.00 64 1016.2
20260508024015 64 0 0.0 0.0 0.00 0.00 0.00 65 1016.3
20260508023515 64 0 0.0 0.0 0.00 0.00 0.00 64 1016.2
20260508023035 64 0 0.0 0.0 0.00 0.00 0.00 64 1016.2
20260508022514 65 0 0.0 0.0 0.00 0.00 0.00 63 1016.2
20260508022014 65 0 0.0 0.0 0.00 0.00 0.00 63 1016.3
20260508021537 65 0 0.0 0.0 0.00 0.00 0.00 63 1016.3
20260508021018 65 0 0.0 0.0 0.00 0.00 0.00 63 1016.3
20260508020514 65 0 0.0 1.7 0.00 0.00 0.00 61 1016.3
20260508020032 66 0 0.0 1.7 0.00 0.00 0.00 61 1016.4
20260508015511 66 323 0.0 1.7 0.00 0.00 0.00 59 1016.3
20260508015015 66 0 0.0 0.0 0.00 0.00 0.00 61 1016.4
20260508014532 67 0 0.0 1.7 0.00 0.00 0.00 59 1016.4
20260508014015 67 0 0.0 1.7 0.00 0.00 0.00 58 1016.4
20260508013515 68 352 0.0 1.7 0.00 0.00 0.00 59 1016.5
20260508013032 68 0 0.0 1.7 0.00 0.00 0.00 58 1016.6
20260508012515 68 319 0.0 1.7 0.00 0.00 0.00 56 1016.6
20260508012015 68 15 0.0 1.7 0.00 0.00 0.00 58 1016.6
20260508011535 68 31 0.0 1.7 0.00 0.00 0.00 56 1016.6
20260508011015 68 0 0.0 1.7 0.00 0.00 0.00 56 1016.7
20260508010517 69 0 0.0 1.7 0.00 0.00 0.00 56 1016.8
20260508010043 69 300 0.0 1.7 0.00 0.00 0.00 56 1017.0
20260508005514 69 0 0.0 1.7 0.00 0.00 0.00 56 1016.9
20260508005015 69 0 0.0 2.6 0.00 0.00 0.00 55 1017.0
20260508004534 68 312 0.0 2.6 0.00 0.00 0.00 56 1017.1
20260508004016 68 296 0.0 2.6 0.00 0.00 0.00 55 1017.1
20260508003514 69 0 0.0 1.7 0.00 0.00 0.00 54 1017.0
20260508003031 69 321 0.9 1.7 0.00 0.00 0.00 54 1017.0
20260508002517 69 338 0.9 1.7 0.00 0.00 0.00 54 1017.2
20260508002015 69 0 0.0 1.7 0.00 0.00 0.00 55 1017.2
20260508001532 69 65 0.0 1.7 0.00 0.00 0.00 54 1017.3
20260508001015 70 94 0.9 1.7 0.00 0.00 0.00 54 1017.2
20260508000516 70 0 0.0 1.7 0.00 0.00 0.00 55 1017.2
20260508000043 70 284 0.0 1.7 0.00 0.00 0.00 55 1017.2
20260507235519 69 298 0.0 1.7 0.00 0.00 0.00 58 1017.2
20260507235015 69 0 0.0 1.7 0.00 0.00 0.00 56 1017.2
20260507234531 69 321 0.0 1.7 0.00 0.00 0.00 56 1017.3
20260507234015 69 0 0.0 1.7 0.00 0.00 0.00 55 1017.4
20260507233515 68 348 0.9 3.5 0.00 0.00 0.00 57 1017.4
20260507233038 68 329 0.9 3.5 0.00 0.00 0.00 55 1017.4
20260507232514 68 283 1.7 3.5 0.00 0.00 0.00 55 1017.5
20260507232018 68 304 0.9 3.5 0.00 0.00 0.00 56 1017.5
20260507231532 68 305 0.9 2.6 0.00 0.00 0.00 55 1017.5
20260507231014 68 321 0.9 2.6 0.00 0.00 0.00 56 1017.6
20260507230516 68 319 0.9 3.5 0.00 0.00 0.00 54 1017.6
20260507230048 68 0 0.9 3.5 0.00 0.00 0.00 54 1017.7
20260507225515 67 0 0.9 2.6 0.00 0.00 0.00 54 1017.8
20260507225016 67 273 0.9 2.6 0.00 0.00 0.00 54 1017.7
20260507224535 67 335 1.7 4.3 0.00 0.00 0.00 53 1017.8
20260507224015 67 258 0.0 4.3 0.00 0.00 0.00 55 1017.8
20260507223518 67 302 0.9 4.3 0.00 0.00 0.00 54 1017.9
20260507223105 67 120 0.0 2.6 0.00 0.00 0.00 54 1018.0
20260507222515 66 317 0.9 2.6 0.00 0.00 0.00 57 1018.1
20260507222015 66 325 0.9 2.6 0.00 0.00 0.00 56 1018.3
20260507221532 67 295 0.9 2.6 0.00 0.00 0.00 57 1018.3
20260507221012 67 175 0.9 2.6 0.00 0.00 0.00 55 1018.4
20260507220515 67 281 0.9 3.5 0.00 0.00 0.00 56 1018.4
20260507220034 67 210 0.9 3.5 0.00 0.00 0.00 55 1018.5
20260507215515 67 304 0.9 3.5 0.00 0.00 0.00 58 1018.5
20260507215014 66 349 0.9 2.6 0.00 0.00 0.00 57 1018.7
20260507214536 65 282 0.9 3.5 0.00 0.00 0.00 58 1018.6
20260507214015 65 9 0.0 3.5 0.00 0.00 0.00 58 1018.6
20260507213515 65 325 0.9 3.5 0.00 0.00 0.00 57 1018.7
20260507213034 66 267 0.9 2.6 0.00 0.00 0.00 58 1018.7
20260507212515 65 319 0.9 2.6 0.00 0.00 0.00 57 1018.7
20260507212018 65 262 0.9 2.6 0.00 0.00 0.00 58 1018.8
20260507211532 65 360 0.0 2.6 0.00 0.00 0.00 58 1018.9
20260507211015 65 331 0.0 2.6 0.00 0.00 0.00 62 1018.9
20260507210518 65 230 0.9 4.3 0.00 0.00 0.00 58 1019.1
20260507210040 65 282 0.9 4.3 0.00 0.00 0.00 58 1019.1
20260507205515 65 238 0.0 2.6 0.00 0.00 0.00 58 1019.2
20260507205015 65 326 0.9 2.6 0.00 0.00 0.00 59 1019.3
20260507204533 65 242 1.7 3.5 0.00 0.00 0.00 59 1019.4
20260507204012 65 200 0.9 3.5 0.00 0.00 0.00 60 1019.3
20260507203515 64 269 0.0 3.5 0.00 0.00 0.00 59 1019.5
20260507203037 64 242 1.7 2.6 0.00 0.00 0.00 60 1019.6
20260507202514 64 236 0.9 2.6 0.00 0.00 0.00 63 1019.5
20260507202018 62 270 0.9 3.5 0.00 0.00 0.00 63 1019.6
20260507201534 62 236 1.7 5.2 0.00 0.00 0.00 62 1019.6
20260507201020 61 261 2.6 5.2 0.00 0.00 0.00 63 1019.6
20260507200516 61 237 1.7 2.6 0.00 0.00 0.00 63 1019.7
20260507200050 60 199 0.9 2.6 0.00 0.00 0.00 66 1019.7
20260507195515 60 242 0.9 2.6 0.00 0.00 0.00 65 1019.8
20260507195015 59 239 0.9 3.5 0.00 0.00 0.00 64 1019.9
20260507194533 60 291 0.9 3.5 0.00 0.00 0.00 65 1019.9
20260507194015 60 352 0.9 2.6 0.00 0.00 0.00 66 1020.0
20260507193516 59 232 0.0 2.6 0.00 0.00 0.00 65 1020.0
20260507193043 60 314 0.9 2.6 0.00 0.00 0.00 66 1020.1
20260507192515 59 304 0.0 2.6 0.00 0.00 0.00 68 1020.2
20260507192016 59 232 0.9 1.7 0.00 0.00 0.00 67 1020.1
20260507191530 58 0 0.9 2.6 0.00 0.00 0.00 67 1020.1
20260507191014 58 0 0.0 2.6 0.00 0.00 0.00 69 1020.1
20260507190516 58 226 0.9 2.6 0.00 0.00 0.00 67 1020.2
20260507190037 58 265 0.9 2.6 0.00 0.00 0.00 67 1020.2
20260507185515 58 231 0.9 2.6 0.00 0.00 0.00 69 1020.2
20260507185015 57 0 0.0 5.2 0.00 0.00 0.00 70 1020.3
20260507184532 57 215 1.7 5.2 0.00 0.00 0.00 69 1020.4
20260507184017 56 167 0.0 2.6 0.00 0.00 0.00 70 1020.4
20260507183517 56 132 0.0 4.3 0.00 0.00 0.00 71 1020.4
20260507183037 56 235 0.9 4.3 0.00 0.00 0.00 69 1020.4
20260507182515 56 217 0.9 4.3 0.00 0.00 0.00 70 1020.4
20260507182015 56 0 0.0 1.7 0.00 0.00 0.00 72 1020.4
20260507181535 55 141 0.0 1.7 0.00 0.00 0.00 71 1020.4
20260507181019 55 68 0.0 3.5 0.00 0.00 0.00 71 1020.5
20260507180517 55 59 0.0 3.5 0.00 0.00 0.00 72 1020.4
20260507180033 55 331 0.9 3.5 0.00 0.00 0.00 71 1020.4
20260507175515 55 0 0.0 2.6 0.00 0.00 0.00 72 1020.5
20260507175015 55 0 0.0 2.6 0.00 0.00 0.00 72 1020.5
20260507174541 55 294 0.0 2.6 0.00 0.00 0.00 71 1020.5
20260507174013 55 214 0.0 1.7 0.00 0.00 0.00 71 1020.7
20260507173515 55 0 0.0 1.7 0.00 0.00 0.00 71 1020.6
20260507173035 55 240 0.0 1.7 0.00 0.00 0.00 71 1020.5
20260507172516 55 0 0.0 1.7 0.00 0.00 0.00 72 1020.5
20260507172016 55 0 0.0 1.7 0.00 0.00 0.00 71 1020.5
20260507171531 55 192 0.0 1.7 0.00 0.00 0.00 72 1020.5
20260507171015 54 188 0.0 2.6 0.00 0.00 0.00 73 1020.6
20260507170517 54 192 0.0 2.6 0.00 0.00 0.00 73 1020.6
20260507170035 53 226 0.9 3.5 0.00 0.00 0.00 74 1020.7
20260507165515 53 0 0.0 3.5 0.00 0.00 0.00 73 1020.7
20260507165013 53 233 0.9 2.6 0.00 0.00 0.00 73 1020.7
20260507164532 53 313 0.0 3.5 0.00 0.00 0.00 74 1020.7
20260507164016 53 0 0.9 3.5 0.00 0.00 0.00 74 1020.7
20260507163515 53 0 0.0 2.6 0.00 0.00 0.00 74 1020.6
20260507163033 53 274 0.0 1.7 0.00 0.00 0.00 75 1020.7
20260507162515 53 244 0.0 1.7 0.00 0.00 0.00 74 1020.6
20260507162016 53 251 0.0 2.6 0.00 0.00 0.00 74 1020.7
20260507161535 53 219 1.7 2.6 0.00 0.00 0.00 75 1020.7
20260507161015 52 241 0.0 1.7 0.00 0.00 0.00 77 1020.8
20260507160518 52 0 0.0 2.6 0.00 0.00 0.00 76 1020.6
20260507160039 52 217 0.9 2.6 0.00 0.00 0.00 75 1020.7
20260507155517 52 233 0.9 2.6 0.00 0.00 0.00 76 1020.7
20260507155019 52 0 0.0 0.0 0.00 0.00 0.00 77 1020.7
20260507154533 51 0 0.0 0.0 0.00 0.00 0.00 77 1020.8
20260507154016 51 0 0.0 0.0 0.00 0.00 0.00 77 1020.8
20260507153515 51 0 0.0 0.0 0.00 0.00 0.00 77 1020.8
20260507153037 51 0 0.0 0.0 0.00 0.00 0.00 78 1020.8
20260507152515 51 0 0.0 0.0 0.00 0.00 0.00 78 1020.8
20260507152015 50 0 0.0 0.0 0.00 0.00 0.00 77 1020.9
20260507151532 50 0 0.0 0.0 0.00 0.00 0.00 78 1020.8
20260507151015 50 0 0.0 0.0 0.00 0.00 0.00 78 1020.8
20260507150515 50 0 0.0 0.0 0.00 0.00 0.00 78 1020.8
20260507150038 50 0 0.0 0.0 0.00 0.00 0.00 79 1020.8
20260507145517 50 0 0.0 0.0 0.00 0.00 0.00 79 1020.8
20260507145015 50 0 0.0 0.0 0.00 0.00 0.00 79 1020.8
20260507144534 50 0 0.0 0.0 0.00 0.00 0.00 80 1020.8
20260507144015 49 0 0.0 0.0 0.00 0.00 0.00 79 1020.8
20260507143515 49 0 0.0 0.0 0.00 0.00 0.00 80 1020.8
20260507143032 49 0 0.0 0.0 0.00 0.00 0.00 80 1020.8
20260507142516 49 0 0.0 0.0 0.00 0.00 0.00 80 1020.8
20260507142015 49 0 0.0 0.0 0.00 0.00 0.00 80 1020.8
20260507141533 49 0 0.0 0.0 0.00 0.00 0.00 80 1020.7
20260507141017 49 0 0.0 0.0 0.00 0.00 0.00 80 1020.7
20260507140518 49 0 0.0 0.0 0.00 0.00 0.00 80 1020.6
20260507140033 49 0 0.0 0.0 0.00 0.00 0.00 80 1020.6
20260507135519 49 0 0.0 0.0 0.00 0.00 0.00 80 1020.6
20260507135016 49 0 0.0 0.0 0.00 0.00 0.00 80 1020.5
20260507134531 49 0 0.0 0.0 0.00 0.00 0.00 80 1020.6